Location: Góry Miechowskie
(50.3599°N, 20.1803°E)
Time: 20:02:09
(UTC+00:00)

Cosmos 2219 - Pass Details

Date: 24 September 2024
Orbit: 831 x 860 km, 71.1° (Epoch: 13 October)

Event Time Altitude Azimuth Distance (km) Brightness Sun altitude
Exits shadow 01:05:02 - 139° (SE) 3,289 6.3 -30.5°
Reaches altitude 10° 01:09:43 10° 101° (E) 2,482 6.0 -30.0°
Maximum altitude 01:10:30 10° 93° (E) 2,464 6.1 -29.9°
Drops below altitude 10° 01:11:17 10° 85° (E) 2,487 6.2 -29.8°
Sets 01:16:25 0° 46° (NE) 3,439 7.6 -29.2°
